Probability
1 1 2 2 1 2 2 3 2 1 1 2 2 2 1 0 0 1 1 1 1 1 1 1 1 1 1 0 0 1 2 2 3 3 4 4 3 2 1 0 0 0 0
3 2 1 1 1 1 2 3 3 2 2 2 2 1 0 0 0 0 1 1 1 1 2 2 1 2 1 0 0 0 1 1 1 2 3 4 4 3 1 0 0 0 0
3 2 1 1 1 1 2 4 4 3 2 2 2 1 0 0 0 0 1 1 1 1 2 3 2 2 1 0 0 0 0 0 0 0 1 3 4 4 3 1 1 1 0
1 1 1 1 1 1 1 3 3 3 3 3 3 2 1 1 1 0 0 1 2 1 1 3 3 1 0 0 0 1 1 0 0 0 0 1 3 4 4 3 2 1 1
0 0 1 1 1 0 1 1 1 3 4 4 3 2 1 1 1 1 0 1 2 2 1 2 2 1 0 0 0 1 1 0 0 0 1 2 3 3 4 4 3 1 0
0 0 1 2 1 1 2 1 1 1 2 2 1 1 0 1 2 1 1 1 2 2 1 1 0 0 0 0 0 1 1 0 0 0 2 5 5 3 3 3 1 0 0
0 0 1 1 1 1 1 1 0 0 1 1 0 0 0 1 2 3 2 2 2 1 1 0 0 0 0 0 0 0 0 1 1 0 2 6 7 5 3 2 1 0 0
0 0 0 0 0 0 0 0 0 0 0 0 0 0 0 1 2 3 3 2 1 1 1 0 0 0 0 1 2 2 2 3 2 1 2 4 5 6 5 4 2 1 1
1 1 1 0 0 0 0 0 0 0 0 0 0 0 0 1 2 2 2 1 0 0 0 0 0 0 1 4 5 4 5 5 4 2 2 3 4 5 6 5 4 3 2
2 2 2 1 1 0 0 1 1 1 1 1 0 0 0 1 1 1 1 0 0 0 0 0 0 1 2 4 6 6 6 5 4 3 3 4 4 4 4 5 5 4 3
3 3 3 3 2 1 1 1 1 2 2 1 1 0 0 1 1 0 0 0 0 0 0 1 1 2 3 4 5 6 6 4 3 3 3 4 4 4 3 4 5 4 3
3 3 4 4 4 4 3 2 2 2 3 2 2 2 1 1 1 1 1 0 0 0 1 2 3 4 4 5 6 7 5 3 2 2 2 3 3 4 4 4 4 4 4
4 4 5 6 6 6 5 5 4 3 4 4 4 5 4 3 3 3 2 2 1 2 3 3 5 5 4 6 7 6 4 2 1 1 1 1 2 3 4 4 5 6 6
4 6 6 6 6 6 7 7 7 7 8 8 8 10 9 8 8 8 7 7 5 4 3 4 6 6 5 6 6 5 4 3 2 0 0 0 1 1 2 3 5 6 6
6 7 7 8 8 9 10 10 11 13 15 14 13 14 15 14 13 13 13 13 11 8 6 6 7 8 7 6 6 6 7 6 4 2 0 0 0 0 1 1 3 3 4
9 9 10 11 12 14 14 15 15 16 17 17 16 16 17 18 17 16 16 16 16 14 11 8 10 12 11 10 8 9 9 9 7 4 1 0 0 0 0 0 1 1 2
15 13 13 14 15 16 17 18 17 16 15 15 16 17 18 20 20 19 18 18 18 19 16 13 13 14 15 14 13 12 11 10 9 5 1 0 0 0 0 0 0 0 1
19 18 17 17 15 15 17 19 18 16 15 16 17 19 21 23 25 24 22 21 22 23 22 20 17 16 16 17 18 15 12 10 9 6 2 1 0 0 0 0 0 0 0
20 21 22 21 18 17 17 19 19 18 17 18 19 20 21 24 27 27 26 25 26 26 26 25 23 21 20 21 21 17 13 11 10 7 4 3 1 0 0 0 0 0 0
22 23 24 24 21 18 17 17 18 18 18 18 17 18 19 20 23 24 25 26 27 27 27 26 25 24 22 22 21 18 16 14 12 9 7 5 3 2 1 0 0 0 0
23 23 24 24 22 17 14 14 16 17 18 17 16 16 17 18 18 18 19 20 22 25 26 26 25 24 22 20 18 17 16 16 14 12 12 9 6 4 2 1 0 0 0
26 26 26 26 23 16 12 11 12 16 19 19 18 18 19 18 17 16 14 12 13 17 21 24 24 23 21 18 15 13 13 14 14 13 13 11 8 5 3 2 0 0 0
29 30 31 31 25 17 11 9 9 13 19 21 21 22 21 20 18 18 16 11 10 12 16 20 22 22 20 18 15 13 13 14 14 13 11 8 6 4 3 2 0 0 0
28 28 30 30 25 17 12 8 7 12 17 20 22 23 22 21 19 20 20 17 16 14 13 14 17 17 16 15 15 13 13 13 12 11 9 6 4 4 4 3 2 0 0
24 24 24 24 22 18 13 8 8 13 17 19 22 23 21 20 18 18 19 20 19 16 12 9 9 9 8 7 9 10 11 9 7 7 7 7 5 5 6 7 6 3 1
22 21 22 22 21 19 13 8 9 15 19 20 22 22 19 18 17 16 18 19 18 16 14 10 6 4 2 1 4 7 7 6 3 3 6 8 8 7 7 9 9 5 3
Wind_Speed
4 4 3 2 3 3 3 3 3 3 2 3 2 3 2 3 2 2 5 7 6 6 6 6 6 7 7 7 7 7 6 6 6 6 5 5 5 5 6 6 7 6 6
3 3 3 2 2 2 2 2 3 3 2 2 2 2 1 2 2 2 3 6 7 6 6 6 6 7 7 7 7 7 7 7 7 6 6 6 5 6 7 7 6 7 7
3 2 2 2 2 2 2 2 2 2 2 2 2 2 2 1 2 2 2 2 5 8 7 7 7 7 7 8 8 9 8 8 8 7 6 6 6 7 7 7 7 7 8
2 1 1 2 1 1 1 2 1 1 1 1 1 1 2 2 2 3 3 3 2 3 7 8 7 7 7 8 8 9 9 8 7 7 7 7 8 8 8 8 8 8 8
1 1 1 2 0 1 1 0 2 1 1 1 1 2 1 2 2 2 2 3 3 2 2 6 7 7 8 9 9 9 9 8 7 7 7 7 8 8 8 9 8 8 8
1 0 1 1 1 0 0 1 1 1 0 1 0 1 1 1 2 2 2 2 2 3 3 3 4 6 8 8 8 8 7 6 6 6 7 7 7 7 7 8 8 8 7
1 1 1 0 1 0 1 1 1 2 1 1 1 1 2 2 2 2 1 1 2 2 2 3 3 2 3 7 6 5 5 6 6 6 6 6 6 6 6 6 6 7 7
0 1 1 1 1 0 1 1 1 1 1 1 1 1 2 3 3 2 2 2 1 2 2 2 2 3 3 2 4 6 5 5 6 6 6 6 6 6 6 6 6 6 6
1 1 1 2 2 1 0 1 1 1 1 1 1 2 1 0 1 2 1 1 1 1 2 1 2 2 3 2 2 4 5 4 5 5 6 5 5 6 6 7 7 7 7
0 0 0 1 2 1 1 1 0 1 2 1 1 0 2 2 2 0 1 1 1 1 1 2 2 2 3 3 2 1 3 3 4 4 4 4 4 5 6 6 7 7 7
0 0 0 1 1 1 2 2 1 2 1 1 1 0 1 1 3 2 1 1 1 1 1 1 2 2 2 3 2 1 3 2 2 3 3 4 4 4 5 6 6 7 7
1 1 1 0 0 1 1 1 1 0 1 2 2 1 1 1 1 1 2 3 2 1 1 1 2 2 2 2 1 3 3 3 3 3 3 3 3 4 4 4 5 5 5
1 1 0 0 0 0 0 0 0 1 0 0 1 1 1 2 2 2 2 3 3 2 2 2 1 2 2 2 1 2 3 3 3 3 3 3 3 3 3 3 3 4 4
1 0 1 1 1 1 1 1 1 1 1 1 1 2 2 2 2 2 3 3 4 3 2 2 1 1 2 2 1 3 2 4 4 3 3 4 4 4 3 3 3 3 4
1 1 1 1 1 1 1 2 1 2 1 2 2 2 3 2 2 2 3 4 4 5 4 2 2 1 2 1 1 3 3 3 4 4 4 4 4 4 4 4 3 3 4
1 2 2 2 2 2 2 2 2 1 2 2 2 2 3 3 2 3 3 3 4 5 4 3 2 2 3 3 1 3 3 4 5 5 5 5 5 4 4 4 4 4 4
3 3 2 2 2 2 2 2 3 3 3 3 3 3 3 4 3 3 3 3 3 4 5 4 3 2 3 5 3 4 4 4 3 6 6 6 5 5 4 4 4 4 4
3 3 3 3 3 3 2 3 3 3 3 3 3 4 4 3 3 4 3 4 3 3 4 5 4 3 4 4 4 5 4 4 3 5 6 6 6 5 5 4 4 4 4
3 3 3 3 4 3 3 3 3 4 4 4 4 4 4 4 4 3 4 4 4 4 4 5 5 3 3 3 4 4 5 4 5 4 7 7 7 7 6 5 4 4 4
3 3 3 3 4 3 3 3 3 3 3 3 3 4 4 4 4 4 4 4 4 5 4 5 4 3 3 3 4 4 3 3 3 3 2 4 6 9 8 7 5 4 4
4 3 4 3 3 3 2 3 4 4 3 4 4 4 4 3 4 4 5 4 4 5 5 4 4 4 3 3 3 4 4 3 3 2 2 3 3 3 4 7 6 5 5
3 3 3 3 3 2 1 1 4 4 4 4 4 4 4 4 3 4 5 6 6 6 5 5 4 4 4 4 4 4 4 4 3 1 3 3 2 2 2 1 3 5 6
3 3 3 3 2 1 1 1 3 5 4 4 4 4 5 3 3 4 5 6 6 6 6 6 6 6 5 4 5 5 4 5 4 3 3 4 3 3 3 1 4 5 5
2 2 2 2 3 1 1 2 4 5 4 4 4 5 5 4 4 4 5 5 5 5 6 6 6 6 5 4 5 6 6 6 5 3 4 5 4 4 3 2 6 7 6
2 3 3 3 3 2 1 2 5 4 4 5 4 4 4 4 3 4 5 5 5 5 4 4 5 6 6 6 5 5 4 4 4 3 2 4 4 4 4 3 5 9 8
3 3 3 3 4 3 1 2 5 5 4 5 4 4 3 4 3 4 5 5 6 5 4 4 5 5 6 6 7 6 5 5 5 4 2 3 3 3 3 3 3 4 5
Wind_Direction
77 81 78 74 79 91 109 109 99 105 115 125 132 130 125 121 131 135 130 158 178 189 198 205 206 202 198 195 198 198 198 200 203 204 203 211 220 222 220 222 223 222 222
72 78 94 82 80 82 78 90 105 117 103 102 119 124 126 113 123 161 145 154 171 184 192 203 210 209 208 209 211 211 213 218 215 213 215 218 225 229 229 231 227 227 229
82 82 90 100 82 94 106 100 104 111 141 132 118 127 134 136 138 162 175 167 167 179 191 203 214 217 225 223 222 220 219 221 221 218 219 222 227 230 233 234 232 232 231
83 77 81 85 94 112 109 121 112 114 113 125 129 133 133 153 173 187 184 182 190 181 184 194 207 218 229 230 228 228 224 221 223 226 228 229 230 231 234 235 234 236 235
78 78 58 57 143 105 104 119 96 100 126 130 156 157 171 179 176 190 192 189 187 205 198 177 201 219 228 231 232 234 229 224 227 233 237 238 236 236 236 236 236 236 238
77 358 125 25 323 75 93 88 153 139 185 204 44 108 180 177 191 171 203 191 194 204 209 203 201 206 219 231 238 238 232 226 224 227 234 239 240 239 239 238 235 234 235
69 326 347 81 290 24 300 214 203 172 181 159 186 173 162 160 149 169 192 205 186 206 211 217 238 246 199 199 212 225 228 228 227 227 230 235 238 238 240 239 237 234 235
310 198 316 283 340 236 237 245 232 263 163 177 252 235 186 159 163 144 170 184 210 209 213 216 228 242 267 238 158 193 219 232 231 231 235 237 238 236 236 240 241 241 239
342 343 318 320 310 288 100 258 243 244 258 185 285 301 295 36 115 129 131 158 209 252 246 235 234 234 243 252 229 180 202 222 230 239 245 243 240 237 236 238 239 239 236
315 329 335 331 326 355 51 249 118 265 263 239 151 254 324 352 297 187 172 145 166 226 272 283 277 251 241 242 209 145 174 206 224 237 245 246 246 242 240 239 240 241 239
200 322 8 354 333 5 35 19 25 323 299 307 309 227 182 211 248 265 274 284 255 235 234 265 286 283 274 260 250 117 136 175 206 224 239 243 251 250 245 243 244 245 244
185 160 174 336 311 14 54 28 355 16 342 339 321 316 282 265 262 257 256 257 272 282 270 279 266 258 257 256 245 103 143 183 206 219 228 232 245 249 249 248 251 254 254
190 147 200 228 311 16 278 306 250 338 325 282 283 302 316 308 301 287 275 286 287 276 259 261 269 268 264 257 187 145 178 196 211 217 220 232 241 242 240 244 255 258 257
277 112 206 215 242 262 261 259 254 228 235 259 278 302 294 298 296 283 286 286 278 271 259 283 290 287 287 277 33 243 205 181 205 215 222 234 239 237 237 238 249 257 256
236 200 227 232 230 234 255 263 280 271 263 256 255 248 265 278 272 279 273 279 286 283 282 272 268 295 289 279 285 265 260 175 201 216 224 232 236 237 238 237 241 247 252
268 249 247 248 255 249 243 254 251 247 257 259 267 287 284 275 274 267 269 271 273 278 283 297 288 289 301 292 240 265 258 193 209 213 218 225 232 237 237 239 242 246 247
238 240 247 251 256 254 250 252 268 265 256 259 261 258 266 286 285 283 278 272 270 271 270 282 291 293 279 281 277 268 256 249 221 200 211 220 225 228 231 233 237 248 250
233 232 242 251 254 252 253 252 258 261 260 261 268 276 278 274 274 283 283 279 275 272 267 278 285 279 267 266 266 265 266 258 250 192 203 217 219 221 226 227 225 232 236
239 239 239 247 252 252 251 253 257 260 262 265 269 272 280 284 280 280 277 274 267 261 261 266 275 283 275 273 271 264 263 262 260 208 197 205 208 213 218 217 217 220 225
231 236 239 243 248 250 250 254 253 254 260 264 267 269 272 274 274 276 271 271 275 274 264 265 272 273 274 276 269 269 265 256 270 269 250 225 204 205 206 205 206 212 220
232 232 241 240 240 238 242 249 254 248 254 260 261 263 269 284 301 293 292 288 280 274 272 270 273 278 280 287 282 280 283 284 271 281 280 261 231 231 208 197 199 212 221
244 245 247 242 245 262 39 322 274 265 264 265 266 266 257 245 251 247 271 287 289 276 280 277 272 277 279 281 284 280 283 282 281 282 286 279 274 266 258 247 182 195 208
238 237 240 235 237 263 78 253 266 265 263 266 265 267 272 270 263 261 241 241 257 263 263 271 275 278 277 284 284 277 278 277 282 287 279 274 272 270 262 204 172 188 198
245 245 244 237 242 241 155 254 270 253 264 266 266 266 270 275 281 287 274 265 259 252 253 255 269 275 281 287 275 269 269 260 254 246 258 267 265 268 263 221 173 184 197
245 248 242 243 249 254 230 257 269 254 253 261 266 268 272 275 302 299 273 267 266 265 242 253 270 273 274 267 271 270 266 265 269 258 245 270 271 276 267 237 184 186 194
240 249 249 253 253 260 244 261 270 264 263 263 254 250 242 271 284 279 268 266 264 271 276 248 241 239 244 233 229 247 261 266 273 266 246 268 273 280 267 249 234 204 200